Location: Alvis C Story Elementary School
(33.0968°N, 96.6364°W)
Time: 21:39:49
(UTC+00:00)

Lacrosse 5 rocket - Pass Details

Date: 05 July 2022
Orbit: 456 x 628 km, 57.0° (Epoch: 13 August)

Event Time Altitude Azimuth Distance (km) Brightness Sun altitude
Rises 02:47:23 0° 324° (NW) 2,594 6.4 -12.8°
Reaches altitude 10° 02:49:31 10° 326° (NW) 1,735 5.1 -13.1°
Maximum altitude 02:53:25 70° 51° (NE) 568 1.3 -13.8°
Enters shadow 02:55:45 24° 131° (SE) 1,143 2.3 -14.1°
